Weather in Chernavka

Russia / Tambov Oblast     52°10′22″N   42°25′34″E
temp.,
°C
wind,
m/s
gust,
m/s
humid.,
%
clouds,
%
prec.,
mm/h
press.,
hPa
HPBL,
m
9 december, thu
thu900:00+3se51185100 0.1 1017505
03:00+3se4886100 0.1 1017382
06:00+2se4789100 0.0 1017286
09:00+1ese3489100 0.0 1018169
12:00+2se2378100 0.0 1019292
15:00+2e2377100 0.0 1019209
18:00+1ene2483100 0.0 1021143
21:00+1ne2483100 0.0 1022214
10 december, fri
fri1000:00+1ne3584100 0.0 1023304
03:00+1nne4787100 0.0 1024415
06:00+1ne5886100 0.0 1025614
09:000nne5883100 0.0 1027587
12:000ne4677100 0.0 1028414
15:00+1nne4674100 0.0 1028553
18:000nne5776100 0.0 1030329
21:00−3ne48807 0.0 1031299
11 december, sat
sat1100:00−4ne47745 0.0 1031282
03:00−4ne47675 0.0 1032282
06:00−4ne48645 0.0 1032281
09:00−4ene49645 0.0 1033330
12:00−1ene47535 0.0 1033434
15:00−1ene48470 0.0 1033390
18:00−4ene410510 0.0 1034271
21:00−4e410502 0.0 1035274
12 december, sun
sun1200:00−5e410515 0.0 1036286
03:00−6e36595 0.0 1037174
06:00−6e38675 0.0 1038200
09:00−6ese410690 0.0 1038274
12:00−2se59510 0.0 1038387
15:00−2ese48500 0.0 1038365
18:00−4ese411511 0.0 1039301
21:00−5ese513511 0.0 1039341
13 december, mon
mon1300:00−6ese5125617 0.0 1039327
03:00−6ese412597 0.0 1039304
06:00−6ese5135920 0.0 1037314
09:00−6se51455100 0.0 1037368
12:00−3se61442100 0.0 1036516
15:00−2ese61441100 0.0 1035499
18:00−3se61545100 0.0 1035467
21:00−3se61648100 0.0 1034488